Back to Previous

Regional Weather Roundup

361 
ASUS44 KLZK 182105
RWRLZK

WEATHER ROUNDUP FOR ARKANSAS
NATIONAL WEATHER SERVICE LITTLE ROCK AR
300 PM CST THU DEC 18 2014

NOTE: "FAIR" INDICATES FEW OR NO CLOUDS BELOW 12,000 FEET WITH NO
SIGNIFICANT WEATHER AND/OR OBSTRUCTIONS TO VISIBILITY.

ARZ001-003-010-029-182200-
NORTHWEST ARKANSAS
  
CITY           SKY/WX    TMP DP  RH WIND       PRES   REMARKS
FAYETTEVILLE   CLOUDY    40  38  93 CALM      30.14S                  
FORT SMITH     CLOUDY    41  37  86 NE7       30.17S                  
HARRISON       CLOUDY    39  37  92 E3        30.14S                  
BENTONVILLE    CLOUDY    39  36  87 CALM      30.14S                  
ROGERS         CLOUDY    39  37  92 CALM      30.15R FOG              
SILOAM SPGS    CLOUDY    39  34  81 W5        30.16S                  
HIGHFILL       CLOUDY    40  38  93 VRB3      30.14S                  
SPRINGDALE     CLOUDY    39  37  93 W5        30.16R FOG              
$$

ARZ004-005-016-182200-
NORTH CENTRAL ARKANSAS
  
CITY           SKY/WX    TMP DP  RH WIND       PRES   REMARKS
BATESVILLE     CLOUDY    39  36  87 CALM      30.19S                  
FLIPPIN        CLOUDY    39  34  81 CALM      30.16S                  
MTN HOME       CLOUDY    37  35  92 CALM      30.16S                  
$$

ARZ040-041-182200-
WEST CENTRAL ARKANSAS
  
CITY           SKY/WX    TMP DP  RH WIND       PRES   REMARKS
MENA           CLOUDY    46  43  87 CALM      30.12S                  
MOUNT IDA      CLOUDY    44  41  89 CALM      30.12S                  
$$

ARZ009-017-025-026-028-182200-
NORTHEAST ARKANSAS
  
CITY           SKY/WX    TMP DP  RH WIND       PRES   REMARKS
CORNING        FAIR      41  36  81 NE7       30.21S                  
JONESBORO      CLOUDY    42  36  79 NE7       30.19S                  
NEWPORT        LGT RAIN  42  37  82 NE5       30.20S                  
WALNUT RIDGE   CLOUDY    41  34  75 E5        30.20S                  
BLYTHEVILLE    CLOUDY    43  36  76 CALM      30.20S                  
NW BLYTHEVILLE CLOUDY    43  36  75 E3        30.20S                  
$$

ARZ022-023-033-042-044-182200-
CENTRAL ARKANSAS
  
CITY           SKY/WX    TMP DP  RH WIND       PRES   REMARKS
LITTLE ROCK    CLOUDY    43  39  86 NE6       30.18S                  
N LITTLE ROCK  CLOUDY    41  41  99 NE6       30.18S                  
JACKSONVILLE   CLOUDY    41  39  93 N5        30.18R                  
SEARCY         CLOUDY    41  39  93 N3        30.20S FOG              
HOT SPRINGS    CLOUDY    44  40  85 CALM      30.16S                  
RUSSELLVILLE   CLOUDY    41  37  86 NE7       30.16F                  
CLINTON        CLOUDY    39  37  93 CALM      30.19F FOG              
$$

ARZ036-182200-
EAST ARKANSAS
  
CITY           SKY/WX    TMP DP  RH WIND       PRES   REMARKS
WEST MEMPHIS   CLOUDY    44  39  82 N3        30.18S                  
$$

ARZ050-053-066-070-073-182200-
SOUTHWEST ARKANSAS
  
CITY           SKY/WX    TMP DP  RH WIND       PRES   REMARKS
ARKADELPHIA    CLOUDY    44  44 100 VRB3      30.18S                  
CAMDEN         CLOUDY    48  43  81 MISG      30.16S                  
TEXARKANA      CLOUDY    46  43  89 NE7       30.13F                  
EL DORADO      CLOUDY    51  46  83 N3        30.14S                  
DE QUEEN       CLOUDY    46  43  89 NE5       30.13F                  
$$

ARZ056-057-069-182200-
SOUTHEAST ARKANSAS
  
CITY           SKY/WX    TMP DP  RH WIND       PRES   REMARKS
PINE BLUFF     CLOUDY    45  40  82 NE5       30.17S                  
STUTTGART      CLOUDY    43  39  87 N5        30.18R                  
MONTICELLO     CLOUDY    49  44  83 E5        30.16R                  

$$




USA.gov is the U.S. government's official web portal to all federal, state and local government web resources and services.